When you browse on this site, cookies collect data to enhance your experience and personalize the content and advertising you see.
Visit our Privacy Policy to learn more. By continuing to use the site, you agree to this use of cookies and data.
  • In Germany
  • List of Countries
  • For 7 days
  • Water Temperature
  • Satellite Maps
  • Weather Map
  • Weather Widgets
  • user-avatar
    Login

    Hourly Weather Shkoder

    Today, 26 March, Tuesday

    Time Temperature Precipitation Wind Pressure Humidity
    00:00 +11°C° 0 mm 1 mps 735 mmHg 65%
    01:00 +11°C° 0 mm 1 mps 735 mmHg 64%
    02:00 +10°C° 0 mm 2 mps 735 mmHg 65%
    03:00 +10°C° 0 mm 2 mps 736 mmHg 65%
    04:00 +10°C° 0 mm 2 mps 736 mmHg 65%
    05:00 +10°C° 0 mm 3 mps 736 mmHg 66%
    06:00 +10°C° 0 mm 3 mps 736 mmHg 66%
    07:00 +10°C° 0 mm 3 mps 737 mmHg 66%
    08:00 +12°C° 0 mm 4 mps 737 mmHg 61%
    09:00 +13°C° 0 mm 4 mps 737 mmHg 57%
    10:00 +14°C° 0 mm 4 mps 738 mmHg 52%
    11:00 +15°C° 0 mm 5 mps 738 mmHg 50%
    12:00 +15°C° 0 mm 5 mps 738 mmHg 48%
    13:00 +15°C° 0 mm 5 mps 738 mmHg 46%
    14:00 +15°C° 0 mm 5 mps 738 mmHg 45%
    15:00 +15°C° 0 mm 5 mps 738 mmHg 45%
    16:00 +14°C° 0 mm 5 mps 738 mmHg 44%
    17:00 +13°C° 0 mm 5 mps 738 mmHg 48%
    18:00 +12°C° 0 mm 5 mps 739 mmHg 51%
    19:00 +9°C° 0 mm 5 mps 740 mmHg 54%
    20:00 +9°C° 0 mm 5 mps 740 mmHg 55%
    21:00 +9°C° 0 mm 5 mps 741 mmHg 56%
    22:00 +8°C° 0 mm 5 mps 741 mmHg 56%
    23:00 +8°C° 0 mm 5 mps 742 mmHg 56%

    Tomorrow, 27 March, Wednesday

    Time Temperature Precipitation Wind Pressure Humidity
    00:00 +8°C° 0 mm 5 mps 742 mmHg 56%
    01:00 +7°C° 0 mm 5 mps 742 mmHg 56%
    02:00 +7°C° 0 mm 5 mps 742 mmHg 57%
    03:00 +7°C° 0 mm 4 mps 742 mmHg 57%
    04:00 +7°C° 0 mm 4 mps 742 mmHg 57%
    05:00 +7°C° 0 mm 4 mps 743 mmHg 57%
    06:00 +7°C° 0 mm 5 mps 743 mmHg 56%
    07:00 +7°C° 0 mm 5 mps 743 mmHg 56%
    08:00 +9°C° 0 mm 5 mps 743 mmHg 52%
    09:00 +10°C° 0 mm 5 mps 743 mmHg 48%
    10:00 +12°C° 0 mm 5 mps 744 mmHg 44%
    11:00 +13°C° 0 mm 5 mps 743 mmHg 43%
    12:00 +14°C° 0 mm 4 mps 743 mmHg 41%
    13:00 +14°C° 0 mm 4 mps 743 mmHg 39%
    14:00 +14°C° 0 mm 4 mps 743 mmHg 39%
    15:00 +14°C° 0 mm 4 mps 743 mmHg 39%
    16:00 +14°C° 0 mm 4 mps 743 mmHg 39%
    17:00 +13°C° 0 mm 4 mps 743 mmHg 42%
    18:00 +12°C° 0 mm 4 mps 744 mmHg 44%
    19:00 +11°C° 0 mm 4 mps 744 mmHg 47%
    20:00 +9°C° 0 mm 5 mps 744 mmHg 50%
    21:00 +8°C° 0 mm 5 mps 745 mmHg 52%
    22:00 +8°C° 0 mm 5 mps 745 mmHg 55%
    23:00 +7°C° 0 mm 5 mps 745 mmHg 56%

    Day after tomorrow, 28 March, Thursday

    Time Temperature Precipitation Wind Pressure Humidity
    00:00 +6°C° 0 mm 5 mps 745 mmHg 57%
    01:00 +6°C° 0 mm 5 mps 745 mmHg 58%
    02:00 +5°C° 0 mm 5 mps 745 mmHg 58%
    03:00 +5°C° 0 mm 5 mps 745 mmHg 59%
    04:00 +5°C° 0 mm 5 mps 745 mmHg 59%
    05:00 +5°C° 0 mm 5 mps 745 mmHg 56%
    06:00 +6°C° 0 mm 5 mps 745 mmHg 54%
    07:00 +6°C° 0 mm 5 mps 745 mmHg 51%
    08:00 +8°C° 0 mm 5 mps 745 mmHg 45%
    09:00 +9°C° 0 mm 5 mps 745 mmHg 40%
    10:00 +12°C° 0 mm 5 mps 745 mmHg 34%
    11:00 +13°C° 0 mm 5 mps 745 mmHg 33%
    12:00 +14°C° 0 mm 5 mps 745 mmHg 32%
    13:00 +15°C° 0 mm 4 mps 744 mmHg 31%
    14:00 +14°C° 0 mm 4 mps 744 mmHg 32%
    15:00 +14°C° 0 mm 4 mps 744 mmHg 33%
    16:00 +14°C° 0 mm 4 mps 744 mmHg 34%
    17:00 +13°C° 0 mm 4 mps 744 mmHg 39%
    18:00 +11°C° 0 mm 4 mps 745 mmHg 43%
    19:00 +10°C° 0 mm 4 mps 745 mmHg 48%
    20:00 +8°C° 0 mm 4 mps 745 mmHg 50%
    21:00 +8°C° 0 mm 4 mps 746 mmHg 52%
    22:00 +7°C° 0 mm 4 mps 746 mmHg 53%
    23:00 +7°C° 0 mm 4 mps 747 mmHg 54%

    29 March, Friday

    Time Temperature Precipitation Wind Pressure Humidity
    00:00 +6°C° 0 mm 4 mps 747 mmHg 55%
    01:00 +6°C° 0 mm 4 mps 747 mmHg 56%
    02:00 +6°C° 0 mm 4 mps 747 mmHg 56%
    03:00 +5°C° 0 mm 4 mps 747 mmHg 56%
    04:00 +5°C° 0 mm 4 mps 747 mmHg 57%
    05:00 +6°C° 0 mm 4 mps 747 mmHg 55%
    06:00 +6°C° 0 mm 4 mps 747 mmHg 54%
    07:00 +7°C° 0 mm 4 mps 747 mmHg 52%
    08:00 +10°C° 0 mm 4 mps 747 mmHg 47%
    09:00 +11°C° 0 mm 4 mps 747 mmHg 42%
    10:00 +13°C° 0 mm 4 mps 747 mmHg 36%
    11:00 +14°C° 0 mm 4 mps 747 mmHg 35%
    12:00 +15°C° 0 mm 4 mps 746 mmHg 34%
    13:00 +17°C° 0 mm 3 mps 746 mmHg 32%
    14:00 +17°C° 0 mm 3 mps 746 mmHg 33%
    15:00 +16°C° 0 mm 3 mps 746 mmHg 34%
    16:00 +16°C° 0 mm 3 mps 746 mmHg 35%
    17:00 +14°C° 0 mm 3 mps 746 mmHg 41%
    18:00 +12°C° 0 mm 3 mps 746 mmHg 47%
    19:00 +10°C° 0 mm 3 mps 746 mmHg 52%
    20:00 +10°C° 0 mm 3 mps 747 mmHg 55%
    21:00 +9°C° 0 mm 3 mps 747 mmHg 57%
    22:00 +9°C° 0 mm 3 mps 747 mmHg 60%
    23:00 +8°C° 0 mm 3 mps 747 mmHg 62%

    30 March, Saturday

    Time Temperature Precipitation Wind Pressure Humidity
    00:00 +8°C° 0 mm 3 mps 747 mmHg 63%
    01:00 +8°C° 0 mm 3 mps 747 mmHg 65%
    02:00 +7°C° 0 mm 3 mps 747 mmHg 65%
    03:00 +7°C° 0 mm 3 mps 747 mmHg 66%
    04:00 +7°C° 0 mm 3 mps 747 mmHg 66%
    05:00 +8°C° 0 mm 3 mps 747 mmHg 64%
    06:00 +8°C° 0 mm 3 mps 747 mmHg 62%
    07:00 +9°C° 0 mm 3 mps 747 mmHg 60%
    08:00 +11°C° 0 mm 3 mps 747 mmHg 53%
    09:00 +13°C° 0 mm 3 mps 746 mmHg 46%
    10:00 +16°C° 0 mm 3 mps 746 mmHg 39%
    11:00 +16°C° 0 mm 3 mps 745 mmHg 37%
    12:00 +17°C° 0 mm 2 mps 745 mmHg 35%
    13:00 +18°C° 0 mm 2 mps 744 mmHg 34%
    14:00 +18°C° 0 mm 2 mps 744 mmHg 35%
    15:00 +18°C° 0 mm 2 mps 743 mmHg 37%
    16:00 +18°C° 0 mm 2 mps 743 mmHg 39%
    17:00 +16°C° 0 mm 2 mps 743 mmHg 45%
    18:00 +14°C° 0 mm 2 mps 743 mmHg 51%
    19:00 +13°C° 0 mm 2 mps 743 mmHg 57%
    20:00 +12°C° 0 mm 2 mps 743 mmHg 58%
    21:00 +12°C° 0 mm 2 mps 743 mmHg 59%
    22:00 +10°C° 0 mm 3 mps 743 mmHg 60%
    23:00 +10°C° 0 mm 3 mps 742 mmHg 63%

    31 March, Sunday

    Time Temperature Precipitation Wind Pressure Humidity
    00:00 +10°C° 0 mm 3 mps 742 mmHg 66%
    01:00 +9°C° 0 mm 3 mps 742 mmHg 69%
    02:00 +9°C° 0 mm 3 mps 741 mmHg 71%
    03:00 +9°C° 0 mm 3 mps 741 mmHg 73%
    04:00 +8°C° 0 mm 3 mps 741 mmHg 74%
    05:00 +9°C° 0 mm 3 mps 741 mmHg 72%
    06:00 +10°C° 0 mm 2 mps 741 mmHg 69%
    07:00 +10°C° 0 mm 2 mps 740 mmHg 67%
    08:00 +13°C° 0 mm 2 mps 740 mmHg 59%
    09:00 +15°C° 0 mm 2 mps 740 mmHg 50%
    10:00 +18°C° 0 mm 1 mps 740 mmHg 42%
    11:00 +19°C° 0 mm 1 mps 739 mmHg 40%
    12:00 +19°C° 0 mm 2 mps 739 mmHg 38%
    13:00 +19°C° 0 mm 2 mps 738 mmHg 36%
    14:00 +19°C° 0 mm 2 mps 738 mmHg 39%
    15:00 +18°C° 0 mm 2 mps 737 mmHg 43%
    16:00 +18°C° 0 mm 2 mps 737 mmHg 46%
    17:00 +16°C° 0 mm 2 mps 738 mmHg 52%
    18:00 +15°C° 0 mm 1 mps 738 mmHg 58%
    19:00 +13°C° 0 mm 1 mps 738 mmHg 65%
    20:00 +13°C° 0 mm 1 mps 738 mmHg 64%
    21:00 +13°C° 0 mm 2 mps 739 mmHg 63%
    22:00 +13°C° 0 mm 2 mps 739 mmHg 62%
    23:00 +12°C° 0 mm 2 mps 739 mmHg 64%
    Show more